Location: Mountain Grove
(34.0887°N, 86.6172°W)
Time: 23:10:02
(UTC+00:00)

Cosmos 540 Rocket - Pass Details

Date: 14 July 2020
Orbit: 740 x 754 km, 74.1° (Epoch: 12 August)

Event Time Altitude Azimuth Distance (km) Brightness Sun altitude
Rises 09:33:21 0° 344° (NNW) 3,194 7.0 -13.5°
Reaches altitude 10° 09:35:43 10° 346° (NNW) 2,269 6.3 -13.1°
Maximum altitude 09:40:52 77° 72° (ENE) 772 3.6 -12.2°
Drops below altitude 10° 09:46:00 10° 159° (SSE) 2,264 5.8 -11.4°
Sets 09:48:21 0° 161° (SSE) 3,186 6.5 -11.0°
